Weather in Murom

Russia / Vladimir Oblast     55°34′45″N   42°03′08″E
temp.,
°C
wind,
m/s
gust,
m/s
humid.,
%
clouds,
%
prec.,
mm/h
press.,
hPa
HPBL,
m
12 may, wed
wed1200:00+11sw229250 0.2 102711
03:00+10n128983 0.2 102713
06:00+12nne269173 0.0 1026155
09:00+18e5880100 0.1 1025618
12:00+22e595498 0.0 10231702
15:00+21se81259100 0.2 10222096
18:00+16e41774100 0.3 1021518
21:00+16se5126640 0.3 1021500
13 may, thu
thu1300:00+12ese369197 0.1 1021123
03:00+11se249638 0.1 102169
06:00+13se259464 0.0 1021185
09:00+17se367655 0.0 1020802
12:00+16se2695100 7.9 1018305
15:00+16sse2792100 9.6 1017435
18:00+17sse478944 1.3 1016533
21:00+14ssw33951 2.1 101746
14 may, fri
fri1400:00+13s2294100 0.0 101819
03:00+12sse229523 0.0 101815
06:00+13sse259568 0.0 1019144
09:00+18sse3582100 0.0 1019405
12:00+22sse355918 0.4 10181132
15:00+23sse4554100 0.4 10171631
18:00+22se3569100 0.0 1015166
21:00+18se41186100 0.0 1015225
15 may, sat
sat1500:00+17ese3796100 1.1 1014140
03:00+16se349580 1.1 101465
06:00+17sse1491100 0.8 1013135
09:00+20se457962 1.8 1012495
12:00+24s6963100 0.0 1012981
15:00+22sw71177100 1.3 10131049
18:00+20s71379100 1.4 1012647
21:00+14ssw3589100 1.5 101290
16 may, sun
sun1600:00+14s369599 0.6 1012128
03:00+14ssw34950 0.6 101276
06:00+15ssw269397 0.0 1013179
09:00+19ssw4575100 0.0 1013657
12:00+22ssw68586 0.0 10131578
15:00+23ssw610590 0.0 10132025
18:00+21sw48670 0.0 1013385
21:00+15wsw337999 0.0 101538